Regional Weather Roundup
Issued by NWS Green Bay, WI

Home | Current Version | Previous Version | Text Only | Print | Product List | Glossary On
Versions: 1 2 3 4 5 6 7 8 9 10 11 12 13 14 15 16 17 18 19 20 21 22 23 24 25 26 27 28 29 30 31 32 33 34 35 36 37 38 39 40 41 42 43 44 45 46 47 48 49 50
000
ASUS43 KGRB 220759
RWRGRB

NORTH-CENTRAL AND NORTHEAST WISCONSIN REGIONAL WEATHER ROUNDUP
NATIONAL WEATHER SERVICE GREEN BAY WI
200 AM CST MON DEC 22 2014

WIZ005-009-010>012-018-019-220900-
NORTH CENTRAL WISCONSIN

CITY           SKY/WX    TMP DP  RH WIND       PRES   REMARKS
IRONWOOD       CLOUDY    34  32  93 E3        29.75S
MANITOWISH WTR NOT AVBL
ARBOR VITAE    NOT AVBL
EAGLE RIVER    NOT AVBL
LAND O LAKES   NOT AVBL
RHINELANDER    CLOUDY    32  31  96 S8        29.83F FOG
PHILLIPS       NOT AVBL
ANTIGO         NOT AVBL
TOMAHAWK       NOT AVBL
MERRILL        NOT AVBL
$$

WIZ013-073-220900-
NORTHEAST WISCONSIN

CITY           SKY/WX    TMP DP  RH WIND       PRES   REMARKS
IRON MOUNTAIN  CLOUDY    33  30  88 S12       29.89S FOG
MARINETTE      CLOUDY    36  30  80 S9G16     29.95S
$$

WIZ017-030-035>037-045-220900-
CENTRAL WISCONSIN

CITY           SKY/WX    TMP DP  RH WIND       PRES   REMARKS
MEDFORD        NOT AVBL
WAUSAU         LGT SNOW  33  31  92 SE10      29.86S FOG
MOSINEE        NOT AVBL
MARSHFIELD     LGT SNOW  34  32  92 S10       29.84S FOG
WISC RAPIDS    CLOUDY    35  30  82 S8        29.88F
STEVENS POINT  NOT AVBL
WAUPACA        NOT AVBL
SHAWANO        NOT AVBL
CLINTONVILLE   NOT AVBL
$$

WIZ038-039-048-051-220900-
FOX VALLEY

CITY           SKY/WX    TMP DP  RH WIND       PRES   REMARKS
NWS GREEN BAY  CLOUDY    35  31  85 S10       29.95S
APPLETON       NOT AVBL
OSHKOSH        CLOUDY    35  29  78 S13       29.93F
FOND DU LAC    CLOUDY    35  29  78 S13       29.94F
$$

WIZ022-050-052-220900-
EAST CENTRAL WISCONSIN

CITY           SKY/WX    TMP DP  RH WIND       PRES   REMARKS
STURGEON BAY   CLOUDY    36  30  80 S14       29.98S
MANITOWOC      NOT AVBL
SHEBOYGAN      CLOUDY    35  30  82 S10G18    29.97F
$$

LMZ563-521-522-541>543-220900-
LAKESHORE

STATION/POSITION TIME  TEMP    WIND        PRES    VSBY  WAVE
                       AIR SEA DIR/SP/G                  HT/PER
                 (UTC) (F)     (DEG/KT/KT) (MB)    (MI)  (FT/S)
SHEBOYGAN LKSHOR 0700   37 36  180/ 26/ 29 1015.7F
KEWAUNEE LKSHORE 0700   36     190/ 13/ 15 1014.3F
ALGOMA MARINA    0700          220/ 24/ 28   N/A
NORTHPORT PIER   0700   36     150/ 14/ 22 1015.2S
SISTER BAY LKSHO 0700          170/ 16/ 23   N/A
CHAMBERS ISLAND  0700   37     170/  5/  8 1014.9S
MENOMINEE LKSHOR 0700   35     160/ 10/ 15 1015.1F
$$


USA.gov is the U.S. government's official web portal to all federal, state and local government web resources and services.